DW8785 Weather Reports


time (UTC)temp
C
wind
direction
speed
KPH
gust
KPH
rain 1hr
cm
rain 24hr
cm
rain mn
cm
humidity
%
barometer
mb
20260503191527 14 357 14.5 0.0 0.00 0.00 0.00 58 1014.1
20260503190014 14 359 14.5 0.0 0.00 0.00 0.00 57 1014.2
20260503184501 15 359 14.5 0.0 0.00 0.00 0.00 56 1014.1
20260503183058 15 359 14.5 0.0 0.00 0.00 0.00 55 1014.1
20260503181554 15 274 14.5 0.0 0.00 0.00 0.00 56 1014.0
20260503180057 15 357 12.9 0.0 0.00 0.00 0.00 56 1013.8
20260503174551 16 0 12.9 0.0 0.00 0.00 0.00 55 1013.9
20260503173041 16 253 11.3 0.0 0.00 0.00 0.00 54 1013.7
20260503171536 17 191 11.3 0.0 0.00 0.00 0.00 53 1013.7
20260503081600 17 316 0.0 0.0 0.00 0.00 0.00 47 1016.0
20260503080104 17 0 0.0 0.0 0.00 0.00 0.00 46 1016.1
20260503071544 16 288 0.0 0.0 0.00 0.00 0.00 43 1016.5
20260503054516 14 288 0.0 0.0 0.00 0.00 0.00 41 1016.7
20260503053010 14 288 0.0 0.0 0.00 0.00 0.00 43 1016.6
20260503051506 13 288 0.0 0.0 0.00 0.00 0.00 43 1016.7
20260503050003 13 289 0.0 0.0 0.00 0.00 0.00 45 1016.5
20260503044558 13 289 0.0 0.0 0.00 0.00 0.00 45 1016.4
20260503043056 13 288 0.0 0.0 0.00 0.00 0.00 47 1016.4
20260503041550 13 280 0.0 0.0 0.00 0.00 0.00 48 1016.4
20260503040046 13 280 0.0 0.0 0.00 0.00 0.00 48 1016.4
20260503034546 13 280 0.0 0.0 0.00 0.00 0.00 47 1016.3
20260503033035 13 280 0.0 0.0 0.00 0.00 0.00 49 1016.3
20260503031531 13 280 0.0 0.0 0.00 0.00 0.00 50 1016.4
20260503030034 13 280 0.0 0.0 0.00 0.00 0.00 50 1016.4
20260503024522 13 280 3.2 0.0 0.00 0.00 0.00 52 1016.4
20260503023018 13 278 6.4 0.0 0.00 0.00 0.00 52 1016.4
20260503021514 13 275 8.0 0.0 0.00 0.00 0.00 52 1016.5
20260503020010 13 267 9.7 0.0 0.00 0.00 0.00 51 1016.4
20260503014506 13 284 11.3 0.0 0.00 0.00 0.00 51 1016.7
20260503013003 13 285 12.9 0.0 0.00 0.00 0.00 50 1016.6
20260503011557 13 264 12.9 0.0 0.00 0.00 0.00 50 1016.7
20260503010054 13 280 11.3 0.0 0.00 0.00 0.00 49 1017.0
20260503004550 14 275 9.7 0.0 0.00 0.00 0.00 47 1016.9
20260503003047 14 359 6.4 0.0 0.00 0.00 0.00 47 1016.9
20260503001546 14 359 6.4 0.0 0.00 0.00 0.00 42 1017.1
20260503000041 15 189 1.6 0.0 0.00 0.00 0.00 38 1017.4
20260502234544 15 188 0.0 0.0 0.00 0.00 0.00 35 1017.4
20260502233037 15 188 0.0 0.0 0.00 0.00 0.00 36 1017.5
20260502231523 15 188 0.0 0.0 0.00 0.00 0.00 37 1017.6
20260502230020 15 188 1.6 0.0 0.00 0.00 0.00 37 1017.9
20260502224516 15 186 0.0 0.0 0.00 0.00 0.00 30 1018.1
20260502223012 15 185 0.0 0.0 0.00 0.00 0.00 30 1018.2
20260502221515 15 185 0.0 0.0 0.00 0.00 0.00 28 1018.3
20260502220011 15 185 0.0 0.0 0.00 0.00 0.00 28 1018.4
20260502214504 15 185 0.0 0.0 0.00 0.00 0.00 30 1018.5
20260502213059 15 185 4.8 0.0 0.00 0.00 0.00 31 1018.5
20260502211556 14 185 1.6 0.0 0.00 0.00 0.00 38 1018.5
20260502210105 13 157 0.0 0.0 0.00 0.00 0.00 48 1018.7
20260502204553 14 155 0.0 0.0 0.00 0.00 0.00 48 1018.8
20260502203049 13 155 0.0 0.0 0.00 0.00 0.00 49 1018.8
20260502201541 13 148 0.0 0.0 0.00 0.00 0.00 50 1018.9
20260502200037 13 136 0.0 0.0 0.00 0.00 0.00 49 1019.2
20260502194535 13 112 0.0 0.0 0.00 0.00 0.00 49 1019.1
20260502193035 13 49 0.0 0.0 0.00 0.00 0.00 48 1019.0